Weather History for Lexington, NE

Change the Weather History Date:

Tuesday, October 29, 2013

  Actual Average Record
Temperature  
Mean Temperature 38 °F -  
Max Temperature 41 °F 54 °F 80 °F (2003)
Min Temperature 36 °F 32 °F 23 °F (2014)
Degree Days  
Heating Degree Days 26    
Moisture  
Dew Point 38 °F    
Average Humidity 94    
Maximum Humidity 96    
Minimum Humidity 86    
Precipitation  
Precipitation 0.02 in - - ()
Sea Level Pressure  
Sea Level Pressure 30.02 in    
Wind  
Wind Speed 8 mph (NNE)    
Max Wind Speed 16 mph    
Max Gust Speed 30 mph    
Visibility 4 miles    
Events      
Averages and records for this station are not official NWS values.
T = Trace of Precipitation, MM = Missing Value Source: NWS Daily Summary

Daily Weather History Graph

Daily Weather History Graph

Search for Another Location

Airport:

Trip Planner

Search our weather history database for the weather conditions in past years. The results will help you decide how hot, cold, wet, or windy it might be!

Date:

Astronomy

Oct. 29, 2013 Rise Set
Actual Time 8:06 AM CDT 6:38 PM CDT
Civil Twilight 7:38 AM CDT 7:06 PM CDT
Nautical Twilight 7:05 AM CDT 7:39 PM CDT
Astronomical Twilight 6:33 AM CDT 8:10 PM CDT
Moon 2:56 AM CDT (10/29) 3:54 PM CDT (10/29)
Length of Visible Light 11h 28m
Length of Day
10h 32m
Waning Crescent, 25% of the Moon is Illuminated
Oct 29
Waning Crescent
Nov 3
New
Nov 9
First Quarter
Nov 17
Full
Nov 25
Last Quarter

Hourly Weather History & Observations

Time (CDT) Temp. Windchill Dew Point Humidity Pressure Visibility Wind Dir Wind Speed Gust Speed Precip Events Conditions
12:15 AM 41.4 °F 34.3 °F 37.6 °F 86% 30.07 in 7.0 mi East 12.7 mph - N/A   Overcast
12:35 AM 41.2 °F 34.1 °F 37.9 °F 88% 30.07 in 7.0 mi ENE 12.7 mph - N/A   Overcast
12:55 AM 41.0 °F 33.9 °F 38.3 °F 90% 30.06 in 5.0 mi ENE 12.7 mph 16.1 mph N/A   Overcast
1:15 AM 40.8 °F 34.5 °F 38.5 °F 91% 30.06 in 4.0 mi NE 10.4 mph - N/A   Overcast
1:35 AM 40.6 °F 34.3 °F 38.8 °F 93% 30.07 in 3.0 mi NE 10.4 mph - N/A   Overcast
1:55 AM 40.5 °F 33.6 °F 38.8 °F 94% 30.06 in 3.0 mi NE 11.5 mph - N/A   Drizzle
2:15 AM 40.5 °F 34.6 °F 39.2 °F 95% 30.06 in 3.0 mi NE 9.2 mph - N/A   Light Drizzle
2:35 AM 40.5 °F 35.1 °F 39.2 °F 95% 30.05 in 3.0 mi NE 8.1 mph - N/A   Overcast
2:55 AM 40.5 °F 36.5 °F 39.2 °F 95% 30.05 in 3.0 mi NNE 5.8 mph - N/A   Overcast
3:15 AM 40.3 °F 33.9 °F 39.0 °F 95% 30.04 in 4.0 mi NE 10.4 mph - N/A   Overcast
3:35 AM 40.3 °F 34.4 °F 38.8 °F 95% 30.03 in 1.8 mi NNE 9.2 mph - N/A   Drizzle
3:55 AM 40.3 °F 34.4 °F 39.2 °F 96% 30.03 in 2.0 mi NE 9.2 mph - N/A   Light Drizzle
4:15 AM 40.1 °F 35.3 °F 39.0 °F 96% 30.04 in 1.8 mi North 6.9 mph - 0.01 in   Drizzle
5:15 AM 40.1 °F 35.3 °F 38.8 °F 95% 30.04 in 2.5 mi NNE 6.9 mph - N/A   Overcast
8:55 AM 37.8 °F 31.8 °F 36.5 °F 95% 30.02 in 4.0 mi NNE 8.1 mph - N/A   Overcast
9:35 AM 37.4 °F 34.9 °F 36.0 °F 95% 30.03 in 2.5 mi NNE 3.5 mph - N/A   Overcast
9:55 AM 37.4 °F - 36.0 °F 95% 30.04 in 1.5 mi Calm Calm - N/A   Overcast
10:15 AM 37.0 °F 33.3 °F 35.8 °F 95% 30.04 in 1.8 mi NNE 4.6 mph - N/A   Overcast
10:35 AM 37.0 °F 32.4 °F 35.8 °F 95% 30.04 in 2.0 mi NNE 5.8 mph - N/A   Overcast
10:55 AM 36.9 °F 29.6 °F 35.6 °F 95% 30.05 in 2.0 mi North 10.4 mph - N/A   Overcast
11:15 AM 36.9 °F - 35.6 °F 95% 30.04 in 2.0 mi Calm Calm - N/A   Light Drizzle
11:35 AM 37.4 °F 33.8 °F 36.1 °F 95% 30.04 in 2.5 mi North 4.6 mph - N/A   Overcast
11:55 AM 37.8 °F 33.3 °F 36.5 °F 95% 30.04 in 2.0 mi North 5.8 mph - 0.01 in   Light Drizzle
12:15 PM 37.8 °F 34.2 °F 36.5 °F 95% 30.05 in 2.0 mi North 4.6 mph - N/A   Overcast
12:35 PM 38.3 °F 33.9 °F 36.9 °F 95% 30.04 in 2.5 mi North 5.8 mph - N/A   Overcast
12:55 PM 38.1 °F 29.1 °F 36.5 °F 94% 30.04 in 2.5 mi NNW 16.1 mph 29.9 mph N/A   Overcast
1:15 PM 37.8 °F 31.8 °F 36.5 °F 95% 30.03 in 1.2 mi North 8.1 mph 25.3 mph N/A   Overcast
1:35 PM 38.5 °F 36.1 °F 37.0 °F 95% 30.00 in 1.0 mi North 3.5 mph - N/A   Overcast
1:55 PM 38.3 °F - 36.9 °F 95% 29.99 in 2.0 mi Calm Calm - N/A   Overcast
2:15 PM 38.7 °F 36.3 °F 37.4 °F 95% 29.98 in 2.5 mi NNE 3.5 mph - N/A   Overcast
2:35 PM 38.7 °F 31.8 °F 37.4 °F 95% 29.97 in 3.0 mi North 10.4 mph - N/A   Overcast
2:55 PM 39.0 °F 32.8 °F 37.4 °F 94% 29.97 in 3.0 mi North 9.2 mph - N/A   Overcast
3:15 PM 39.0 °F 32.8 °F 37.4 °F 94% 29.98 in 2.5 mi North 9.2 mph 19.6 mph N/A   Overcast
3:35 PM 39.0 °F 33.4 °F 37.6 °F 95% 29.97 in 2.5 mi North 8.1 mph - N/A   Overcast
3:55 PM 39.2 °F 35.0 °F 37.6 °F 94% 29.96 in 3.0 mi NNE 5.8 mph - N/A   Overcast
4:15 PM 39.4 °F 36.1 °F 37.9 °F 95% 29.96 in 4.0 mi NNE 4.6 mph - N/A   Overcast
4:35 PM 39.4 °F 36.1 °F 37.9 °F 95% 29.96 in 5.0 mi NNE 4.6 mph - N/A   Overcast
4:55 PM 39.2 °F 35.0 °F 37.8 °F 95% 29.97 in 7.0 mi NNE 5.8 mph - N/A   Overcast
5:15 PM 39.2 °F 33.0 °F 37.8 °F 95% 29.97 in 4.0 mi North 9.2 mph - N/A   Overcast
5:35 PM 39.2 °F 34.2 °F 38.1 °F 96% 29.98 in 2.5 mi North 6.9 mph - N/A   Overcast
5:55 PM 39.2 °F 34.2 °F 37.9 °F 95% 29.98 in 1.5 mi North 6.9 mph - N/A   Light Drizzle
6:15 PM 39.0 °F 34.0 °F 37.8 °F 95% 29.99 in 2.0 mi North 6.9 mph - N/A   Light Drizzle
6:35 PM 39.0 °F 34.0 °F 37.8 °F 95% 29.99 in 1.2 mi NNW 6.9 mph - N/A   Overcast
6:55 PM 38.8 °F 33.2 °F 37.6 °F 95% 30.00 in 2.5 mi North 8.1 mph - N/A   Overcast
7:15 PM 38.8 °F 34.6 °F 37.6 °F 95% 30.00 in 3.0 mi North 5.8 mph - N/A   Light Drizzle
7:35 PM 38.8 °F 34.6 °F 37.8 °F 96% 30.00 in 5.0 mi North 5.8 mph - N/A   Overcast
7:55 PM 39.2 °F 35.9 °F 37.9 °F 95% 30.01 in 5.0 mi North 4.6 mph - N/A   Overcast
8:15 PM 39.2 °F 37.0 °F 37.9 °F 95% 30.02 in 7.0 mi North 3.5 mph - N/A   Overcast
8:35 PM 39.2 °F 35.9 °F 37.9 °F 95% 30.02 in 5.0 mi North 4.6 mph - N/A   Overcast
8:55 PM 39.2 °F 35.0 °F 37.9 °F 95% 30.02 in 10.0 mi North 5.8 mph - N/A   Overcast
9:15 PM 39.4 °F 36.1 °F 37.9 °F 95% 30.02 in 10.0 mi North 4.6 mph - N/A   Overcast
9:35 PM 39.4 °F 35.2 °F 37.8 °F 94% 30.02 in 10.0 mi North 5.8 mph - N/A   Overcast
9:55 PM 39.2 °F 33.0 °F 37.6 °F 94% 30.02 in 10.0 mi North 9.2 mph - N/A   Overcast
10:15 PM 39.2 °F 35.0 °F 37.4 °F 93% 30.02 in 10.0 mi North 5.8 mph - N/A   Overcast
10:35 PM 39.2 °F 35.0 °F 37.4 °F 93% 30.03 in 10.0 mi North 5.8 mph - N/A   Overcast
10:55 PM 38.8 °F 35.4 °F 37.0 °F 93% 30.03 in 10.0 mi North 4.6 mph - N/A   Overcast
11:15 PM 38.8 °F 36.5 °F 37.4 °F 95% 30.03 in 10.0 mi North 3.5 mph - N/A   Overcast
11:35 PM 38.7 °F 33.6 °F 37.4 °F 95% 30.02 in 10.0 mi North 6.9 mph - N/A   Overcast
11:55 PM 38.3 °F 33.2 °F 36.7 °F 94% 30.02 in 10.0 mi North 6.9 mph - N/A   Overcast